Regional Weather Roundup
Issued by NWS Albany, NY

Home | Current Version | Previous Version | Graphics & Text | Print | Product List | Glossary Off
Versions: 1 2 3 4 5 6 7 8 9 10 11 12 13 14 15 16 17 18 19 20 21 22 23 24 25 26 27 28

000
ASUS41 KALY 232010
RWRALY

NEW YORK STATE HOURLY WEATHER ROUNDUP
NATIONAL WEATHER SERVICE ALBANY NY
400 PM EDT TUE MAY 23 2017

NOTE: "FAIR" INDICATES FEW OR NO CLOUDS BELOW 12,000 FEET WITH NO
SIGNIFICANT WEATHER AND/OR NO OBSTRUCTIONS TO VISIBILITY.

NYZ032-033-038>043-046>054-057>066-NYZ062>081-082-084-232100-
EAST


CITY           SKY/WX    TMP DP  RH WIND       PRES   REMARKS
ALBANY         PTSUNNY   71  47  42 VRB5      29.85F
GLENS FALLS    NOT AVBL
POUGHKEEPSIE   CLOUDY    66  49  54 W6        29.87F
NEWBURGH       PTSUNNY   64  52  63 CALM      29.90F
MONTGOMERY     CLOUDY    67  47  48 CALM      29.88F
WHITE PLAINS   CLOUDY    67  49  52 SW6       29.86F
ISLIP          CLOUDY    68  47  46 CALM      29.86F
NEW YORK CITY  CLOUDY    69  45  41 NE5       29.86F
CENTRAL PARK   CLOUDY    68  47  46 CALM      29.89F
$$

NYZ005>009-017-018-044>046-055-056-232100-
CENTRAL


CITY           SKY/WX    TMP DP  RH WIND       PRES   REMARKS
FULTON         SUNNY     73  47  39 VRB3      29.83F
SYRACUSE       PTSUNNY   73  48  41 NW3       29.83F
ROME           SUNNY     70  49  47 VRB3      29.85F
ELMIRA         CLOUDY    74  46  36 VRB6      29.83F
BINGHAMTON     CLOUDY    67  41  38 VRB3      29.87F
MONTICELLO     CLOUDY    63  46  55 CALM      29.91F
$$

NYZ026>034-041>043-087-232100-
NORTH


CITY           SKY/WX    TMP DP  RH WIND       PRES   REMARKS
WATERTOWN      CLOUDY    68  51  54 SW7       29.83F
FORT DRUM      NOT AVBL
OGDENSBURG     FAIR      71  47  41 SW9G20    29.82S
MASSENA        CLOUDY    72  49  44 W15G22    29.81F
SARANAC LAKE   CLOUDY    66  46  48 W8G18     29.83F
PLATTSBURGH    CLOUDY    65  49  56 SE9       29.81F
$$

NYZ001>004-010>016-019>021-085-232100-
WEST


CITY           SKY/WX    TMP DP  RH WIND       PRES   REMARKS
NIAGARA FALLS  MOSUNNY   74  47  38 VRB6      29.81F
BUFFALO        MOSUNNY   73  46  38 SW5       29.81F
DUNKIRK        MOSUNNY   66  48  52 N9        29.82F
JAMESTOWN      PTSUNNY   70  46  43 E5        29.83F
WELLSVILLE     CLOUDY    72  46  39 SE8       29.86F
ROCHESTER      PTSUNNY   72  50  45 SW6       29.82F
PENN YAN       SUNNY     71  47  42 E7        29.84F
$$

             KEY
       WCI = WIND CHILL INDEX
       VSB = VISIBILITY
       HX  = HEAT INDEX
$$




USA.gov is the U.S. government's official web portal to all federal, state and local government web resources and services.